[[{"header":{"parameterUnit":"m.s-1","parameterCategory":1,"la1":30.2991,"la2":30.254,"lo1":-89.0895,"lo2":-89.0444,"dy":0.0017,"dx":0.0017,"nx":28,"ny":28,"refTime":"2024-07-01T09:00:00:Z","depth":0,"parameterNumber":2,"parameterNumberName":"U-component_of_WINDS"},"data":[0,0,0,0,0,0,0,0,0,0,0,0,0,0,0,0,0,0,0,0,0,0,0,0,0,0,0,0,0,0,0,0,0,0,0,0,0,0,0,0,0,0,0,0,0,0,0,0,0,0,0,0,0,0,0,0,0,0,1.9189,1.919,0,1.9286,1.9287,1.9288,1.9276,1.9275,1.9273,1.9272,1.9372,1.9376,1.9381,0,0,0,0,0,0,0,0,0,0,0,0,0,1.8995,1.8999,1.9188,1.919,1.9191,1.9285,1.9287,1.9288,1.9277,1.9275,1.9273,1.9271,1.9371,1.9376,1.9381,0,0,0,0,0,0,0,0,0,0,0,0,0,1.9084,1.9,1.9188,1.9197,1.9198,1.9285,1.9287,1.9289,1.9277,1.9275,1.9272,1.927,1.9369,1.9375,1.9382,1.9467,0,0,1.9401,1.9403,0,0,0,0,0,0,0,0,1.9079,1.9092,1.9194,1.9196,1.9198,1.9267,1.9256,1.9348,1.9278,1.9247,1.9272,1.9269,1.9339,1.9348,1.9371,1.9472,1.9476,1.9401,1.9405,1.9408,1.9409,0,0,0,0,0,0,0,1.9073,1.9087,1.9227,1.9196,1.9198,1.9196,1.9206,1.9273,1.9305,1.925,1.9249,1.9261,1.934,1.9365,1.9373,1.9477,1.9401,1.9406,1.941,1.9413,1.9655,1.9657,0,0,0,0,0,0,1.9065,1.9082,1.9224,1.923,1.9132,1.9202,1.9213,1.9247,1.9304,1.9311,1.9263,1.926,1.9356,1.9366,1.9377,1.9482,1.9408,1.9413,1.9417,1.9652,1.9655,1.9658,0,0,0,0,0,0,1.9061,1.9077,1.922,1.9156,1.9174,1.9207,1.9246,1.925,1.9275,1.9314,1.932,1.9282,1.9354,1.9368,1.9445,1.9485,1.9416,1.9422,1.9649,1.9653,1.9657,1.9691,0,0,0,0,0,0,1.9055,1.9076,1.9108,1.9157,1.9177,1.9286,1.9248,1.9254,1.9286,1.9283,1.9334,1.9341,1.9354,1.9436,1.9451,1.9492,1.9427,1.9645,1.9651,1.9656,1.9687,1.9696,1.9704,0,0,0,0,0,1.9048,1.9114,1.911,1.9127,1.9218,1.9288,1.93,1.9313,1.9289,1.9322,1.9348,1.9339,1.9478,1.9444,1.9461,1.9505,1.9643,1.9649,1.9655,1.9683,1.9694,1.9704,0,0,0,0,0,0,1.9069,1.912,1.9116,1.9199,1.924,1.9286,1.9328,1.9324,1.9372,1.9368,1.9383,1.9394,1.9472,1.9496,1.9457,1.9591,1.9557,1.9567,1.9573,1.9584,1.9592,1.9585,1.9432,0,0,0,0,0,1.9083,1.9135,1.9177,1.9247,1.9267,1.9294,1.9325,1.9332,1.9374,1.9391,1.9422,1.9463,1.9517,1.9552,1.9603,1.969,1.9702,1.9729,1.9738,1.9744,1.9753,1.9803,1.9816,1.9678,1.9678,1.9678,0,0,1.9113,1.9148,1.9179,1.9252,1.9284,1.9338,1.9308,1.9367,1.9408,1.94,1.9475,1.9499,1.9547,1.963,1.9668,1.9652,1.9794,1.9752,1.9757,1.9762,1.981,1.9823,1.9835,1.9682,1.9682,1.9681,0,0,1.9196,1.9227,1.9288,1.9321,1.937,1.9388,1.9403,1.945,1.9466,1.9541,1.9537,1.9586,1.9677,1.9712,1.9741,1.9839,1.9833,1.9855,1.99,1.9949,1.996,1.9969,2.0005,2.0018,1.9863,1.9863,1.9864,0,1.9227,1.9308,1.9321,1.938,1.9413,1.9409,1.9472,1.9503,1.9566,1.9589,1.9571,1.9686,1.9718,1.981,1.9834,1.9857,1.9876,1.9849,1.9957,1.9967,1.9976,2.0011,2.0024,1.9866,1.9866,1.9865,1.9865,0,1.9345,1.9401,1.9445,1.9507,1.9544,1.9605,1.9628,1.9665,1.9669,1.9689,1.9767,1.9805,1.9864,1.9886,1.9891,1.998,1.9969,1.9953,1.992,1.9991,2.0024,2.0037,1.9869,1.9868,1.9868,1.9867,0,0,1.9442,1.9511,1.9527,1.9555,1.9609,1.9654,1.9715,1.9773,1.9805,1.9849,1.9902,1.998,1.9967,2.0,2.0009,2.0051,2.0128,2.0031,2.0032,2.0049,2.023,2.0242,2.0257,2.0124,2.0127,2.0129,2.0226,0,1.9531,1.964,1.9653,1.975,1.9803,1.9801,1.9855,1.9895,1.9915,1.9964,1.9988,2.0043,2.0021,2.0041,2.0083,2.011,2.0165,2.0103,2.0175,2.0177,2.0164,2.0273,2.0286,2.0375,2.0239,2.0241,2.0243,0,1.9649,1.9696,1.9798,1.9846,1.9869,1.9917,1.9973,2.0019,2.0065,2.0077,2.0115,2.0119,2.0184,2.0148,2.0238,2.0196,2.0227,2.0244,2.0248,2.0256,2.0215,2.0285,2.0404,2.0418,2.0263,2.0261,2.026,0,1.9711,1.9801,1.9874,1.9898,1.9956,1.999,2.0016,2.0059,2.0093,2.0142,2.0165,2.022,2.0251,2.0294,2.0313,2.0285,2.0404,2.0369,2.0417,2.0416,2.0442,2.044,2.0569,2.0461,2.046,2.046,2.046,0,1.9809,1.9872,1.9903,1.9948,2.0019,2.0034,2.0104,2.0129,2.0168,2.0218,2.022,2.0267,2.0289,2.034,2.0356,2.043,2.0443,2.0456,2.0459,2.0456,2.0455,2.0477,2.0471,2.0464,2.0463,2.0462,2.0462,0,1.9891,1.9914,1.9994,2.0042,2.0056,2.0106,2.0148,2.0192,2.0213,2.0277,2.0293,2.0326,2.0387,2.041,2.0484,2.0494,2.058,2.0578,2.0564,2.0566,2.0613,2.0609,2.0761,2.0782,2.0659,2.066,2.0661,0,1.9952,2.0001,2.0054,2.0088,2.0115,2.017,2.0205,2.0223,2.026,2.0316,2.0354,2.0415,2.0464,2.0562,2.0593,2.065,2.065,2.0699,2.0658,2.0654,2.0652,2.0649,2.0655,2.0707,2.0708,2.0709,2.071,0,2.0059,2.0068,2.0119,2.0175,2.0217,2.0261,2.0305,2.0333,2.0357,2.0399,2.0461,2.05,2.0576,2.0636,2.0695,2.0723,2.0722,2.0723,2.0737,2.0735,2.0725,2.0732,2.0586,2.0719,2.0718,2.0718,2.0717,2.0717,2.0133,2.0177,2.0222,2.0279,2.0313,2.0354,2.0399,2.0425,2.0477,2.054,2.0548,2.0615,2.0661,2.074,2.077,2.0824,2.0811,2.0831,2.0836,2.0841,2.0845,2.0716,2.0834,2.0834,2.0834,2.0834,2.0833,0,2.0241,2.027,2.0323,2.0383,2.0429,2.0423,2.0471,2.0509,2.0568,2.0611,2.066,2.0732,2.0791,2.0827,2.0887,2.0923,2.0924,2.0938,2.0936,2.0943,2.0853,2.0835,2.0936,2.0936,2.0936,2.0936,2.0936,2.0936,2.0303,2.0376,2.0391,2.0483,2.0511,2.0577,2.0605,2.0643,2.0677,2.0758,2.0807,2.083,2.0871,2.0934,2.0988,2.0998,2.102,2.1036,2.1044,2.096,2.0949,2.0939,2.0922,2.104,2.104,2.113,2.113,2.1131]},{"header":{"parameterUnit":"m.s-1","parameterCategory":1,"la1":30.2991,"la2":30.254,"lo1":-89.0895,"lo2":-89.0444,"dy":0.0017,"dx":0.0017,"nx":28,"ny":28,"refTime":"2024-07-01T09:00:00:Z","depth":0,"parameterNumber":3,"parameterNumberName":"V-component_of_WINDS"},"data":[0,0,0,0,0,0,0,0,0,0,0,0,0,0,0,0,0,0,0,0,0,0,0,0,0,0,0,0,0,0,0,0,0,0,0,0,0,0,0,0,0,0,0,0,0,0,0,0,0,0,0,0,0,0,0,0,0,0,-1.582,-1.5821,0,-1.59,-1.5901,-1.5901,-1.5914,-1.5913,-1.5912,-1.5912,-1.5993,-1.5996,-1.5999,0,0,0,0,0,0,0,0,0,0,0,0,0,-1.568,-1.5683,-1.582,-1.5821,-1.5822,-1.5899,-1.5901,-1.5902,-1.5914,-1.5913,-1.5912,-1.5912,-1.5992,-1.5996,-1.5999,0,0,0,0,0,0,0,0,0,0,0,0,0,-1.5748,-1.5684,-1.582,-1.5838,-1.584,-1.5899,-1.5901,-1.5902,-1.5914,-1.5913,-1.5912,-1.5911,-1.5991,-1.5995,-1.6,-1.6047,0,0,-1.6012,-1.6014,0,0,0,0,0,0,0,0,-1.5745,-1.5754,-1.5834,-1.5837,-1.5839,-1.5896,-1.5881,-1.595,-1.5914,-1.5886,-1.5912,-1.5911,-1.5962,-1.5968,-1.5986,-1.6051,-1.6054,-1.6013,-1.6015,-1.6017,-1.6018,0,0,0,0,0,0,0,-1.574,-1.575,-1.5852,-1.5835,-1.5838,-1.5842,-1.585,-1.5894,-1.5929,-1.5888,-1.589,-1.5899,-1.5963,-1.5981,-1.5988,-1.6055,-1.6013,-1.6016,-1.6019,-1.6021,-1.6164,-1.6165,0,0,0,0,0,0,-1.5732,-1.5746,-1.5849,-1.5854,-1.5788,-1.5845,-1.5855,-1.5879,-1.5928,-1.5935,-1.59,-1.5899,-1.5975,-1.5983,-1.599,-1.6049,-1.6017,-1.6021,-1.6024,-1.6163,-1.6164,-1.6165,0,0,0,0,0,0,-1.5729,-1.5741,-1.5846,-1.58,-1.5814,-1.5849,-1.5876,-1.5881,-1.5899,-1.5937,-1.5943,-1.5912,-1.5974,-1.5984,-1.6033,-1.6052,-1.6023,-1.6027,-1.6161,-1.6163,-1.6165,-1.6167,0,0,0,0,0,0,-1.5725,-1.574,-1.5758,-1.5801,-1.5816,-1.5887,-1.5877,-1.5883,-1.5907,-1.5907,-1.595,-1.5956,-1.5974,-1.6026,-1.6037,-1.6057,-1.603,-1.6159,-1.6162,-1.6164,-1.6165,-1.6168,-1.6171,0,0,0,0,0,-1.572,-1.5755,-1.5759,-1.5771,-1.584,-1.5888,-1.5897,-1.5916,-1.5908,-1.5927,-1.5951,-1.5955,-1.6048,-1.6031,-1.6043,-1.6065,-1.6158,-1.6161,-1.6164,-1.6164,-1.6168,-1.6171,0,0,0,0,0,0,-1.5713,-1.5761,-1.5765,-1.5816,-1.5848,-1.589,-1.5914,-1.592,-1.5955,-1.5954,-1.5977,-1.5986,-1.6034,-1.6054,-1.6034,-1.6114,-1.6103,-1.6108,-1.6098,-1.6103,-1.6106,-1.6099,-1.6034,0,0,0,0,0,-1.5718,-1.5752,-1.5792,-1.5833,-1.5849,-1.5878,-1.59,-1.5913,-1.5947,-1.596,-1.5988,-1.6021,-1.6058,-1.6081,-1.6117,-1.6168,-1.6178,-1.619,-1.6193,-1.6195,-1.6199,-1.6228,-1.6234,-1.6175,-1.6175,-1.6175,0,0,-1.5727,-1.5757,-1.5778,-1.5832,-1.5859,-1.5894,-1.589,-1.5928,-1.5954,-1.5966,-1.6013,-1.6035,-1.6073,-1.6123,-1.6147,-1.6142,-1.6218,-1.6199,-1.62,-1.6203,-1.6232,-1.6237,-1.6242,-1.6177,-1.6176,-1.6176,0,0,-1.5762,-1.5789,-1.5826,-1.5852,-1.5892,-1.5912,-1.5921,-1.5962,-1.5977,-1.6025,-1.6034,-1.6067,-1.613,-1.6157,-1.6179,-1.6226,-1.6231,-1.6237,-1.6253,-1.6281,-1.6286,-1.629,-1.6306,-1.6312,-1.6241,-1.6241,-1.6241,0,-1.5769,-1.5823,-1.5844,-1.5882,-1.5905,-1.5918,-1.5955,-1.598,-1.603,-1.6046,-1.604,-1.612,-1.6147,-1.6203,-1.6215,-1.6232,-1.6243,-1.6232,-1.6283,-1.6288,-1.6292,-1.6308,-1.6314,-1.6242,-1.6242,-1.6241,-1.6241,0,-1.5829,-1.5867,-1.5892,-1.5939,-1.5966,-1.6004,-1.603,-1.6055,-1.6066,-1.6086,-1.6135,-1.6168,-1.6211,-1.6225,-1.6236,-1.6284,-1.628,-1.6278,-1.6267,-1.6298,-1.6313,-1.632,-1.6242,-1.6242,-1.6242,-1.6242,0,0,-1.5861,-1.5921,-1.593,-1.5952,-1.5997,-1.6026,-1.6065,-1.6107,-1.6128,-1.6162,-1.6195,-1.6248,-1.6248,-1.6273,-1.6287,-1.6311,-1.6346,-1.6307,-1.6308,-1.6313,-1.6401,-1.6402,-1.6408,-1.6351,-1.6352,-1.6353,-1.6398,0,-1.5902,-1.597,-1.5991,-1.6048,-1.6084,-1.6096,-1.613,-1.6162,-1.6182,-1.6215,-1.6238,-1.6275,-1.6272,-1.6287,-1.6312,-1.6337,-1.6364,-1.6334,-1.6381,-1.6383,-1.6371,-1.6417,-1.6417,-1.6458,-1.6404,-1.6405,-1.6406,0,-1.5958,-1.5993,-1.6054,-1.6096,-1.6111,-1.6141,-1.6182,-1.6213,-1.6249,-1.6263,-1.6291,-1.6303,-1.6344,-1.6332,-1.6389,-1.6368,-1.6389,-1.6404,-1.6406,-1.6411,-1.6396,-1.6422,-1.6472,-1.6478,-1.6416,-1.6415,-1.6414,0,-1.5975,-1.6038,-1.6083,-1.6101,-1.6151,-1.6171,-1.6193,-1.6228,-1.6253,-1.6289,-1.6305,-1.6345,-1.6367,-1.6398,-1.642,-1.6409,-1.6476,-1.6465,-1.6488,-1.6487,-1.6501,-1.6499,-1.6554,-1.6515,-1.6515,-1.6515,-1.6514,0,-1.6018,-1.6054,-1.6091,-1.6119,-1.6161,-1.6184,-1.6225,-1.6247,-1.6279,-1.6311,-1.6325,-1.6355,-1.6384,-1.6418,-1.6437,-1.6481,-1.6491,-1.6503,-1.6507,-1.6501,-1.65,-1.6515,-1.6513,-1.6516,-1.6516,-1.6516,-1.6515,0,-1.6043,-1.6069,-1.6119,-1.6162,-1.6174,-1.6203,-1.624,-1.6268,-1.6289,-1.633,-1.6341,-1.6374,-1.6415,-1.6441,-1.6494,-1.6506,-1.6555,-1.6559,-1.6542,-1.6544,-1.6566,-1.6563,-1.6631,-1.6641,-1.6596,-1.6596,-1.6597,0,-1.6069,-1.6097,-1.6144,-1.6166,-1.6188,-1.6225,-1.6249,-1.6274,-1.63,-1.6344,-1.6366,-1.6408,-1.6443,-1.6508,-1.6537,-1.6577,-1.6582,-1.6603,-1.6588,-1.6581,-1.6582,-1.658,-1.6583,-1.6605,-1.6605,-1.6606,-1.6606,0,-1.6111,-1.6122,-1.6158,-1.6198,-1.6227,-1.626,-1.6293,-1.6311,-1.6341,-1.6369,-1.6411,-1.6438,-1.6492,-1.6533,-1.6576,-1.6599,-1.6608,-1.6611,-1.6618,-1.6612,-1.6602,-1.6607,-1.6549,-1.6609,-1.6609,-1.6608,-1.6608,-1.6608,-1.6137,-1.6163,-1.62,-1.6239,-1.6266,-1.6297,-1.6325,-1.635,-1.6386,-1.6431,-1.6444,-1.6488,-1.6524,-1.6583,-1.6607,-1.6642,-1.6639,-1.665,-1.6652,-1.6655,-1.6655,-1.6596,-1.665,-1.665,-1.665,-1.665,-1.665,0,-1.6179,-1.6204,-1.624,-1.6285,-1.6316,-1.6322,-1.6359,-1.6384,-1.6423,-1.6456,-1.649,-1.6539,-1.658,-1.6613,-1.6655,-1.6677,-1.6682,-1.6687,-1.6685,-1.669,-1.6655,-1.6644,-1.6682,-1.6682,-1.6682,-1.6682,-1.6682,-1.6682,-1.6205,-1.625,-1.6266,-1.6325,-1.6349,-1.6392,-1.6413,-1.6441,-1.6468,-1.6522,-1.6556,-1.6577,-1.6611,-1.6655,-1.6693,-1.6702,-1.6716,-1.6721,-1.673,-1.6696,-1.6693,-1.6689,-1.6679,-1.6724,-1.6724,-1.6763,-1.6763,-1.6763]}]]